Starlink 30073

operational
NORAD ID: 56840 Int'l Des: 2023-079 Owner: SPXS Country: US Constellation: starlink
LEOCIRCULAR

关于 Starlink 30073

正在加载描述...

实时位置

正在加载3D地球...

即将过境

高度历史

Altitude vs Time

uPlot chart will show altitude changes over time

两行轨道根数

1 56840U 23079T 26095.25002315 -.00002691 00000-0 -88396-4 0 9992
2 56840 43.0007 142.3745 0001530 265.3160 168.2702 15.27549960 5804
Epoch: Apr 5, 2026 • Age: 10 hours

当前状态

高度 482.8 km
速度 7.63 km/s
星下点 1.32°N, 113.39°W
发射日期 Jun 4, 2023
运行时间 2.8 years
类型 internet

技术详情

分类 Payload
质量 730.00 kg
干质量 700.00 kg
总质量 730.00 kg
长度 0.30 m
直径 4.10 m
跨度 29.00 m
形状 Box + pan
制造商 SPXS
平台类型 Starlink V2M
阶段状态 In Orbit
所有者/国家 SPXS/US

大型星座

Loading constellations...